KB0BS-13 Weather Reports


Display with metric or nautical units.
time (UTC)temp
F
wind
direction
speed
MPH
gust
MPH
rain 1hr
in
rain 24hr
in
rain mn
in
humidity
%
barometer
mb
20260901101303 66 293 0.0 0.0 0.00 0.00 0.00 99 1014.9
20260901100802 66 292 0.0 0.0 0.00 0.00 0.00 99 1014.7
20260901100257 66 290 0.0 0.0 0.00 0.00 0.00 99 1014.5
20260901095756 66 278 0.0 0.0 0.00 0.00 0.00 99 1014.7
20260901095253 66 278 0.0 0.0 0.00 0.00 0.00 99 1014.6
20260901094748 66 275 0.0 0.0 0.00 0.00 0.00 99 1014.5
20260901094243 66 275 0.0 0.0 0.00 0.00 0.00 99 1014.6
20260901093738 66 275 0.0 0.0 0.00 0.00 0.00 99 1014.6
20260901093237 66 275 0.0 0.0 0.00 0.00 0.00 99 1014.4
20260901092733 66 275 0.0 0.0 0.00 0.00 0.00 99 1014.5
20260901092229 66 275 0.0 0.0 0.00 0.00 0.00 99 1014.6
20260901091724 66 273 0.0 0.0 0.00 0.00 0.00 99 1014.7
20260901091220 66 284 0.0 0.0 0.00 0.00 0.00 99 1014.6
20260901090714 66 278 0.0 0.0 0.00 0.00 0.00 99 1014.6
20260901090209 66 287 0.0 0.0 0.00 0.00 0.00 99 1014.5
20260901085706 66 303 0.0 0.0 0.00 0.00 0.00 99 1014.4
20260901085200 66 272 0.0 0.0 0.00 0.00 0.00 99 1014.0
20260901084657 66 272 0.0 0.0 0.00 0.00 0.00 99 1014.1
20260901084153 66 272 0.0 0.0 0.00 0.00 0.00 99 1014.2
20260901083653 66 272 0.0 0.0 0.00 0.00 0.00 99 1014.1
20260901083153 66 271 0.0 0.0 0.00 0.00 0.00 99 1014.2
20260901082651 66 272 0.0 0.0 0.00 0.00 0.00 99 1014.2
20260901082147 66 272 0.0 0.0 0.00 0.00 0.00 99 1014.1
20260901081642 66 271 0.0 0.0 0.00 0.00 0.00 99 1014.3
20260901081143 66 284 0.0 0.0 0.00 0.00 0.00 99 1014.1
20260901080643 66 305 0.0 0.0 0.00 0.00 0.00 99 1014.1
20260901080141 66 289 0.0 0.0 0.00 0.00 0.00 99 1014.1
20260901075637 66 289 0.0 0.0 0.00 0.00 0.00 99 1014.2
20260901075137 66 302 0.0 0.0 0.00 0.00 0.00 99 1014.2
20260901074636 66 292 0.0 0.0 0.00 0.00 0.00 99 1014.2
20260901074131 66 288 0.0 1.0 0.00 0.00 0.00 99 1014.1
20260901073628 66 280 0.0 2.0 0.00 0.00 0.00 99 1014.2
20260901073123 66 273 0.0 0.0 0.00 0.00 0.00 99 1014.1
20260901072618 66 281 0.0 0.0 0.00 0.00 0.00 99 1014.0
20260901072113 66 285 0.0 0.0 0.00 0.00 0.00 99 1014.0
20260901071613 66 269 0.0 0.0 0.00 0.00 0.00 99 1014.3
20260901071112 66 277 0.0 1.0 0.00 0.00 0.00 99 1014.0
20260901070607 66 279 0.0 0.0 0.00 0.00 0.00 99 1014.0
20260901065556 66 275 0.0 0.0 0.00 0.00 0.00 99 1013.8
20260901065050 66 266 0.0 0.0 0.00 0.00 0.00 99 1013.7
20260901064548 66 279 0.0 0.0 0.00 0.00 0.00 99 1013.8
20260901064044 66 229 0.0 0.0 0.00 0.00 0.00 99 1013.6
20260901063540 66 228 0.0 0.0 0.00 0.00 0.00 99 1013.7
20260901063036 66 228 0.0 0.0 0.00 0.00 0.00 99 1013.8
20260901062532 66 228 0.0 0.0 0.00 0.00 0.00 99 1013.6
20260901062028 66 228 0.0 0.0 0.00 0.00 0.00 99 1013.4
20260901061524 66 228 0.0 0.0 0.00 0.00 0.00 99 1013.6
20260901061019 66 228 0.0 0.0 0.00 0.00 0.00 99 1013.5
20260901060518 66 228 0.0 0.0 0.00 0.00 0.00 99 1013.6
20260901060014 66 228 0.0 0.0 0.00 0.00 0.00 99 1013.6
20260901055509 66 228 0.0 0.0 0.00 0.00 0.00 99 1013.7
20260901055006 66 228 0.0 0.0 0.00 0.00 0.00 99 1013.7
20260901054503 66 228 0.0 0.0 0.00 0.00 0.00 99 1013.6
20260901053959 66 228 0.0 0.0 0.00 0.00 0.00 99 1013.8
20260901053454 66 228 0.0 0.0 0.00 0.00 0.00 99 1013.7
20260901052949 67 228 0.0 0.0 0.00 0.00 0.00 99 1014.0
20260901052445 67 229 0.0 0.0 0.00 0.00 0.00 99 1013.8
20260901051944 66 249 0.0 0.0 0.00 0.00 0.00 99 1014.0
20260901051440 67 241 0.0 0.0 0.00 0.00 0.00 99 1014.0
20260901050939 67 197 0.0 0.0 0.00 0.00 0.00 99 1013.7
20260901050435 67 174 0.0 0.0 0.00 0.00 0.00 99 1013.8
20260901045934 67 83 0.0 0.0 0.00 0.00 0.00 99 1013.5
20260901045430 67 69 0.0 0.0 0.00 0.00 0.00 99 1013.7
20260901044924 67 84 4.0 4.0 0.00 0.00 0.00 99 1013.7
20260901044420 67 58 2.0 3.0 0.00 0.00 0.00 99 1013.5
20260901043917 67 75 3.0 4.0 0.00 0.00 0.00 99 1013.6
20260901043413 67 75 0.0 0.0 0.00 0.00 0.00 99 1013.7
20260901042912 67 329 0.0 0.0 0.00 0.00 0.00 99 1013.8
20260901042407 67 17 0.0 0.0 0.00 0.00 0.00 99 1013.7
20260901041903 67 81 0.0 0.0 0.00 0.00 0.00 99 1013.6
20260901041403 67 162 0.0 0.0 0.00 0.00 0.00 99 1013.8
20260901040902 67 161 0.0 0.0 0.00 0.00 0.00 99 1013.8
20260901040402 67 160 0.0 0.0 0.00 0.00 0.00 99 1013.9
20260901035901 67 112 0.0 0.0 0.00 0.00 0.00 99 1013.8
20260901035400 67 197 0.0 0.0 0.00 0.00 0.00 99 1014.1
20260901034859 67 331 0.0 0.0 0.00 0.00 0.00 99 1014.1
20260901034354 67 331 0.0 0.0 0.00 0.00 0.00 99 1014.1
20260901033849 67 331 0.0 0.0 0.00 0.00 0.00 99 1014.1
20260901033348 67 331 0.0 0.0 0.00 0.00 0.00 99 1014.2
20260901032847 67 67 0.0 0.0 0.00 0.00 0.00 99 1014.1
20260901032346 67 320 0.0 0.0 0.00 0.00 0.00 99 1014.3
20260901031842 67 320 0.0 0.0 0.00 0.00 0.00 99 1014.2
20260901031337 67 111 0.0 0.0 0.00 0.00 0.00 99 1014.2
20260901030837 67 317 0.0 0.0 0.00 0.00 0.00 99 1014.3
20260901030332 67 335 0.0 0.0 0.00 0.00 0.00 99 1014.1
20260901025831 67 75 0.0 0.0 0.00 0.00 0.00 99 1014.3
20260901025326 67 74 2.0 2.0 0.00 0.00 0.00 99 1014.2
20260901024821 67 54 2.0 2.0 0.00 0.00 0.00 99 1014.0
20260901024320 67 80 5.0 7.0 0.00 0.00 0.00 99 1013.9
20260901023819 67 102 2.0 4.0 0.00 0.00 0.00 99 1013.9
20260901023314 67 86 3.0 4.0 0.00 0.00 0.00 99 1014.0
20260901022809 67 101 2.0 7.0 0.00 0.00 0.00 99 1013.9
20260901022306 67 99 5.0 7.0 0.00 0.00 0.00 99 1013.8
20260901021759 67 107 5.0 7.0 0.00 0.00 0.00 99 1013.8
20260901021255 67 68 4.0 7.0 0.00 0.00 0.00 99 1013.7
20260901020750 67 100 6.0 8.0 0.00 0.00 0.00 99 1013.9
20260901020245 67 78 6.0 8.0 0.00 0.00 0.00 99 1014.0
20260901015740 67 66 3.0 6.0 0.00 0.00 0.00 99 1014.1
20260901015237 67 57 2.0 6.0 0.00 0.00 0.00 99 1014.0
20260901014736 67 36 3.0 4.0 0.00 0.00 0.00 99 1014.3
20260901014232 67 22 3.0 4.0 0.00 0.00 0.00 99 1014.3
20260901013727 67 92 2.0 4.0 0.00 0.00 0.00 99 1014.3
20260901013223 67 68 3.0 4.0 0.00 0.00 0.00 99 1014.3
20260901012718 67 78 6.0 7.0 0.00 0.00 0.00 99 1014.2
20260901012218 67 46 1.0 6.0 0.00 0.00 0.00 99 1014.2
20260901011714 67 51 3.0 7.0 0.00 0.00 0.00 99 1014.1
20260901011214 67 68 4.0 4.0 0.00 0.00 0.00 99 1014.0
20260901010708 67 26 4.0 6.0 0.00 0.00 0.00 99 1014.3
20260901010203 67 82 6.0 7.0 0.00 0.00 0.00 99 1014.2
20260901005701 67 74 3.0 4.0 0.00 0.00 0.00 99 1014.2
20260901005157 67 86 4.0 6.0 0.00 0.00 0.00 99 1014.1
20260901004657 67 65 3.0 4.0 0.00 0.00 0.00 99 1013.9
20260901004152 67 53 3.0 6.0 0.00 0.00 0.00 99 1013.8
20260901003646 67 61 6.0 8.0 0.00 0.00 0.00 99 1013.8
20260901003146 67 88 5.0 7.0 0.00 0.00 0.00 99 1013.7
20260901002639 68 71 4.0 9.0 0.00 0.00 0.00 99 1013.6
20260901002134 68 97 3.0 9.0 0.00 0.00 0.00 99 1013.6
20260901001629 68 104 5.0 8.0 0.00 0.00 0.00 99 1013.5
20260901001124 68 46 4.0 9.0 0.00 0.00 0.00 99 1013.5
20260901000620 68 66 4.0 7.0 0.00 0.00 0.00 99 1013.7
20260901000115 68 78 3.0 6.0 0.00 0.00 0.00 99 1013.9
20260831235608 68 74 4.0 6.0 0.00 0.00 0.00 99 1013.9
20260831235104 68 105 4.0 6.0 0.00 0.00 0.00 99 1013.8
20260831234558 68 84 9.0 11.0 0.00 0.00 0.00 99 1013.7
20260831234054 68 104 8.0 9.0 0.00 0.00 0.00 99 1013.5
20260831233548 68 83 7.0 10.0 0.00 0.00 0.00 99 1013.5
20260831233044 68 43 7.0 10.0 0.00 0.00 0.00 99 1013.4
20260831232539 68 89 9.0 11.0 0.00 0.00 0.00 99 1013.5
20260831232035 68 95 8.0 13.0 0.00 0.00 0.00 99 1013.6
20260831231532 68 93 6.0 10.0 0.00 0.00 0.00 99 1013.5
20260831231027 68 67 4.0 9.0 0.00 0.00 0.00 99 1013.5
20260831230523 68 75 7.0 9.0 0.00 0.00 0.00 99 1013.8
20260831230023 68 67 9.0 9.0 0.00 0.00 0.00 99 1013.7
20260831225518 68 74 8.0 10.0 0.00 0.00 0.00 99 1013.8
20260831225018 68 54 11.0 11.0 0.00 0.00 0.00 99 1013.7
20260831224513 68 71 7.0 9.0 0.00 0.00 0.00 99 1013.9
20260831224008 68 60 5.0 9.0 0.00 0.00 0.00 99 1014.0
20260831223503 69 77 4.0 7.0 0.00 0.00 0.00 99 1014.0
20260831223000 69 64 6.0 8.0 0.00 0.00 0.00 99 1013.9
20260831222456 69 50 3.0 11.0 0.00 0.00 0.00 99 1013.9
20260831221954 69 63 6.0 10.0 0.00 0.00 0.00 99 1014.0
20260831221451 69 70 4.0 8.0 0.00 0.00 0.00 99 1014.1
20260831220946 69 43 7.0 9.0 0.00 0.00 0.00 99 1014.0
20260831220441 69 71 8.0 10.0 0.00 0.00 0.00 99 1013.8
20260831215936 69 52 5.0 10.0 0.00 0.00 0.00 99 1013.9
20260831215432 69 106 7.0 10.0 0.00 0.00 0.00 99 1013.9
20260831214928 70 60 6.0 9.0 0.00 0.00 0.00 99 1014.0
20260831214425 70 57 6.0 9.0 0.00 0.00 0.00 99 1014.0
20260831213921 70 67 8.0 9.0 0.00 0.00 0.00 98 1013.9
20260831213417 70 74 9.0 11.0 0.00 0.00 0.00 98 1014.0
20260831212917 71 79 5.0 11.0 0.00 0.00 0.00 98 1013.9
20260831212414 71 82 5.0 9.0 0.00 0.00 0.00 97 1013.8
20260831211913 71 49 4.0 9.0 0.00 0.00 0.00 98 1013.7
20260831211408 71 82 4.0 8.0 0.00 0.00 0.00 98 1013.7
20260831210908 71 54 5.0 8.0 0.00 0.00 0.00 98 1013.7
20260831210403 71 59 6.0 8.0 0.00 0.00 0.00 98 1013.7
20260831205859 71 77 4.0 8.0 0.00 0.00 0.00 98 1013.8
20260831205354 71 56 4.0 8.0 0.00 0.00 0.00 98 1013.7
20260831204849 71 55 4.0 10.0 0.00 0.00 0.00 98 1013.8
20260831204348 71 66 9.0 10.0 0.00 0.00 0.00 98 1013.7
20260831203848 71 48 9.0 10.0 0.00 0.00 0.00 97 1013.8
20260831203343 71 55 6.0 8.0 0.00 0.00 0.00 97 1013.8
20260831202841 71 52 6.0 7.0 0.00 0.00 0.00 98 1014.1
20260831202336 71 39 3.0 8.0 0.00 0.00 0.00 98 1014.0
20260831201836 71 58 6.0 8.0 0.00 0.00 0.00 98 1014.0
20260831201334 71 60 4.0 7.0 0.00 0.00 0.00 97 1013.9
20260831200831 71 45 4.0 9.0 0.00 0.00 0.00 98 1013.9
20260831200325 71 60 5.0 11.0 0.00 0.00 0.00 97 1014.0
20260831195821 72 77 6.0 10.0 0.00 0.00 0.00 97 1014.0
20260831195316 71 75 4.0 8.0 0.00 0.00 0.00 98 1014.2
20260831194812 71 77 5.0 10.0 0.00 0.00 0.00 98 1014.3
20260831194307 71 56 5.0 8.0 0.00 0.00 0.00 98 1014.3
20260831193806 71 74 6.0 9.0 0.00 0.00 0.00 97 1014.4
20260831193301 71 102 6.0 8.0 0.00 0.00 0.00 97 1014.2
20260831192756 71 95 7.0 13.0 0.00 0.00 0.00 97 1014.4
20260831192251 72 69 9.0 13.0 0.00 0.00 0.00 97 1014.3
20260831191747 71 86 7.0 10.0 0.00 0.00 0.00 97 1014.4
20260831191243 71 89 6.0 9.0 0.00 0.00 0.00 98 1014.5
20260831190739 71 46 4.0 10.0 0.00 0.00 0.00 98 1014.5
20260831190239 71 89 9.0 10.0 0.00 0.00 0.00 97 1014.6
20260831185738 71 69 10.0 11.0 0.00 0.00 0.00 97 1014.4
20260831185235 70 91 9.0 14.0 0.00 0.00 0.00 98 1014.5
20260831184733 70 76 10.0 13.0 0.00 0.00 0.00 98 1014.5
20260831184229 71 82 9.0 11.0 0.00 0.00 0.00 97 1014.6
20260831183724 70 83 9.0 13.0 0.00 0.00 0.00 98 1014.6
20260831183223 70 86 10.0 11.0 0.00 0.00 0.00 98 1014.5
20260831182722 71 76 10.0 13.0 0.00 0.00 0.00 97 1014.7
20260831182218 70 94 6.0 8.0 0.00 0.00 0.00 99 1015.0
20260831181718 70 98 7.0 8.0 0.00 0.00 0.00 98 1015.0
20260831181214 70 71 5.0 10.0 0.00 0.00 0.00 98 1015.2
20260831180708 70 109 7.0 10.0 0.00 0.00 0.00 98 1015.2
20260831180203 70 114 8.0 11.0 0.00 0.00 0.00 98 1014.8
20260831175702 70 100 9.0 10.0 0.00 0.00 0.00 98 1014.9
20260831175200 70 95 6.0 8.0 0.00 0.00 0.00 99 1014.8
20260831174659 68 95 5.0 9.0 0.00 0.00 0.00 99 1015.1
20260831174155 68 108 7.0 9.0 0.00 0.00 0.00 99 1015.1
20260831173653 68 103 7.0 8.0 0.00 0.00 0.00 99 1015.2
20260831173149 68 92 4.0 8.0 0.00 0.00 0.00 99 1015.4
20260831172649 68 82 6.0 7.0 0.00 0.00 0.00 99 1015.3
20260831172144 67 96 6.0 7.0 0.00 0.00 0.00 99 1015.3
20260831171639 67 111 5.0 7.0 0.00 0.00 0.00 99 1015.3
20260831171137 67 105 5.0 8.0 0.00 0.00 0.00 99 1015.5
20260831170632 67 92 6.0 8.0 0.00 0.00 0.00 99 1015.6
20260831170124 67 84 7.0 10.0 0.00 0.00 0.00 99 1015.6
20260831165619 67 100 6.0 9.0 0.00 0.00 0.00 99 1015.6
20260831165115 67 99 7.0 8.0 0.00 0.00 0.00 99 1015.4
20260831164611 67 117 4.0 8.0 0.00 0.00 0.00 99 1015.6
20260831164107 66 110 7.0 11.0 0.00 0.00 0.00 99 1015.4
20260831163602 66 120 8.0 10.0 0.00 0.00 0.00 99 1015.6
20260831163057 66 102 6.0 10.0 0.00 0.00 0.00 99 1015.7
20260831162556 66 97 8.0 10.0 0.00 0.00 0.00 99 1015.7
20260831162054 65 113 8.0 9.0 0.00 0.00 0.00 99 1015.5
20260831161550 65 92 7.0 10.0 0.00 0.00 0.00 99 1015.7
20260831161047 65 40 5.0 8.0 0.00 0.00 0.00 99 1015.7
20260831160545 65 126 6.0 10.0 0.00 0.00 0.00 99 1015.7
20260831160042 65 115 5.0 8.0 0.00 0.00 0.00 99 1015.8
20260831155541 65 83 8.0 9.0 0.00 0.00 0.00 99 1015.6
20260831155036 65 84 8.0 9.0 0.00 0.00 0.00 99 1016.0
20260831154533 65 123 5.0 7.0 0.00 0.00 0.00 99 1015.9
20260831154033 65 88 5.0 8.0 0.00 0.00 0.00 99 1016.2
20260831153532 65 91 6.0 7.0 0.00 0.00 0.00 99 1016.1
20260831153029 65 102 6.0 9.0 0.00 0.00 0.00 99 1016.3
20260831152524 65 100 4.0 8.0 0.00 0.00 0.00 99 1016.0
20260831152020 65 78 7.0 10.0 0.00 0.00 0.00 99 1016.0
20260831151519 65 108 6.0 9.0 0.00 0.00 0.00 99 1016.1
20260831151019 65 95 5.0 8.0 0.00 0.00 0.00 99 1016.1
20260831150514 65 93 4.0 8.0 0.00 0.00 0.00 99 1016.1
20260831150010 64 93 6.0 7.0 0.00 0.00 0.00 99 1016.1
20260831145504 65 109 5.0 7.0 0.00 0.00 0.00 99 1016.2
20260831145001 65 95 5.0 7.0 0.00 0.00 0.00 99 1016.3
20260831144456 65 81 5.0 7.0 0.00 0.00 0.00 99 1016.3
20260831143951 65 110 5.0 6.0 0.00 0.00 0.00 99 1016.0
20260831143446 65 101 7.0 9.0 0.00 0.00 0.00 99 1016.1
20260831142941 65 145 6.0 7.0 0.00 0.00 0.00 99 1016.2
20260831142432 65 109 5.0 8.0 0.00 0.00 0.00 99 1016.2
20260831141926 65 83 7.0 9.0 0.00 0.00 0.00 99 1016.3
20260831141420 65 96 4.0 6.0 0.00 0.00 0.00 99 1016.3
20260831140915 65 87 6.0 9.0 0.00 0.00 0.00 99 1016.5
20260831140410 65 116 4.0 7.0 0.00 0.00 0.00 99 1016.3
20260831135908 65 138 4.0 6.0 0.00 0.00 0.00 99 1016.7
20260831135408 65 124 7.0 7.0 0.00 0.00 0.00 99 1016.5
20260831134903 65 144 3.0 4.0 0.00 0.00 0.00 99 1016.3
20260831134400 65 129 3.0 4.0 0.00 0.00 0.00 99 1016.6
20260831133859 65 117 2.0 4.0 0.00 0.00 0.00 99 1016.8
20260831133354 65 136 2.0 3.0 0.00 0.00 0.00 99 1016.8
20260831132849 65 128 0.0 0.0 0.00 0.00 0.00 99 1016.9
20260831132344 65 157 1.0 4.0 0.00 0.00 0.00 99 1016.9
20260831131844 65 148 5.0 6.0 0.00 0.00 0.00 99 1016.7
20260831131340 65 140 5.0 6.0 0.00 0.00 0.00 99 1016.5
20260831130835 65 123 4.0 4.0 0.00 0.00 0.00 99 1016.6
20260831130331 65 117 4.0 6.0 0.00 0.00 0.00 99 1016.1
20260831125830 65 99 3.0 4.0 0.00 0.00 0.00 99 1016.0
20260831125325 65 124 5.0 6.0 0.00 0.00 0.00 99 1016.0
20260831124825 65 101 3.0 7.0 0.00 0.00 0.00 99 1016.0
20260831124321 65 132 2.0 6.0 0.00 0.00 0.00 99 1016.1
20260831123821 65 110 6.0 10.0 0.00 0.00 0.00 99 1015.8
20260831123320 65 122 4.0 6.0 0.00 0.00 0.00 99 1015.8
20260831122815 65 107 6.0 7.0 0.00 0.00 0.00 99 1015.8
20260831122310 65 106 8.0 10.0 0.00 0.00 0.00 99 1015.5
20260831121810 65 110 6.0 9.0 0.00 0.00 0.00 99 1015.7
20260831121307 65 124 5.0 8.0 0.00 0.00 0.00 99 1015.8
20260831120802 65 100 5.0 10.0 0.00 0.00 0.00 99 1015.5
20260831120256 65 90 6.0 11.0 0.00 0.00 0.00 99 1015.6
20260831115752 65 102 6.0 11.0 0.00 0.00 0.00 99 1015.4
20260831115248 65 97 9.0 13.0 0.00 0.00 0.00 99 1015.5
20260831114747 65 125 6.0 10.0 0.00 0.00 0.00 99 1015.4
20260831114247 65 80 6.0 11.0 0.00 0.00 0.00 99 1015.3
20260831113742 65 87 6.0 9.0 0.00 0.00 0.00 99 1015.3
20260831113236 65 78 6.0 9.0 0.00 0.00 0.00 99 1015.3
20260831112736 65 89 7.0 11.0 0.00 0.00 0.00 99 1015.2
20260831112231 65 80 6.0 8.0 0.00 0.00 0.00 99 1015.4
20260831111727 65 101 8.0 10.0 0.00 0.00 0.00 99 1015.4
20260831111223 65 113 5.0 8.0 0.00 0.00 0.00 99 1015.5
20260831110718 65 97 5.0 8.0 0.00 0.00 0.00 99 1015.6
20260831110213 65 91 6.0 7.0 0.00 0.00 0.00 99 1015.7
20260831105712 65 64 7.0 8.0 0.00 0.00 0.00 99 1015.8
20260831105208 65 95 5.0 7.0 0.00 0.00 0.00 99 1015.9
20260831104702 65 95 4.0 9.0 0.00 0.00 0.00 99 1015.9
20260831104159 65 112 5.0 7.0 0.00 0.00 0.00 99 1016.0
20260831103659 65 100 3.0 9.0 0.00 0.00 0.00 99 1016.1
20260831103155 65 96 6.0 10.0 0.00 0.00 0.00 99 1016.3
20260831102654 65 85 6.0 9.0 0.00 0.00 0.00 99 1016.1
20260831102149 65 68 6.0 8.0 0.00 0.00 0.00 99 1016.5
20260831101644 65 86 4.0 9.0 0.00 0.00 0.00 99 1016.5